Alexandroupoli, Greece

8:29 PM EET on November 23, 2017 (GMT +0200)
Dimokritos

Weather History for LGAL - July, 2017

Change the Weather History Date:

Monday, July 17, 2017

  Actual Average Record
Temperature  
Mean Temperature 74 °F -  
Max Temperature 81 °F 86 °F 96 °F (2007)
Min Temperature 66 °F 63 °F 59 °F (1997)
Cooling Degree Days 8    
Growing Degree Days 24 (Base 50)    
Moisture  
Dew Point 59 °F    
Average Humidity 60    
Maximum Humidity 88    
Minimum Humidity 36    
Precipitation  
Precipitation 0.12 in 0.02 in - ()
Sea Level Pressure  
Sea Level Pressure 29.83 in    
Wind  
Wind Speed 22 mph ()    
Max Wind Speed 39 mph    
Max Gust Speed 54 mph    
Visibility 6.3 miles    
Events Rain , Thunderstorm    
Averages and records for this station are not official NWS values.
T = Trace of Precipitation, MM = Missing Value Source: Averaged Metar Reports

Daily Weather History Graph

Daily Weather History Graph

Search for Another Location

Airport or City:

Trip Planner

Search our weather history database for the weather conditions in past years. The results will help you decide how hot, cold, wet, or windy it might be!

Date:

Astronomy

Jul. 17, 2017 Rise Set
Actual Time 5:59 AM EEST 8:45 PM EEST
Civil Twilight 5:26 AM EEST 9:17 PM EEST
Nautical Twilight 4:46 AM EEST 9:57 PM EEST
Astronomical Twilight 3:59 AM EEST 10:44 PM EEST
Moon 12:59 AM EEST (7/17) 2:13 PM EEST (7/17)
Length of Visible Light 15h 50m
Length of Day
14h 46m
Last Quarter, 44% of the Moon is Illuminated
Jul 17
Last Quarter
Jul 23
New
Jul 30
First Quarter
Aug 7
Full
Aug 15
Last Quarter

Hourly Weather History & Observations

Time (EEST) Temp. Heat Index Dew Point Humidity Pressure Visibility Wind Dir Wind Speed Gust Speed Precip Events Conditions
12:00 AM 72 °F - 59 °F 55% 29.86 in 6 mi North 17.3 mph - -   Partly Cloudy
12:20 AM 71.6 °F - 60.8 °F 69% 29.86 in 6.2 mi North 17.3 mph - N/A   Mostly Cloudy
12:50 AM 71.6 °F - 60.8 °F 69% 29.86 in 6.2 mi North 18.4 mph - N/A   Mostly Cloudy
1:20 AM 71.6 °F - 60.8 °F 69% 29.83 in 6.2 mi North 18.4 mph - N/A   Mostly Cloudy
1:50 AM 71.6 °F - 60.8 °F 69% 29.83 in 6.2 mi North 20.7 mph - N/A   Mostly Cloudy
2:20 AM 71.6 °F - 60.8 °F 69% 29.83 in 6.2 mi North 20.7 mph - N/A   Mostly Cloudy
2:50 AM 69.8 °F - 59.0 °F 68% 29.83 in 6.2 mi North 19.6 mph 31.1 mph N/A   Mostly Cloudy
3:00 AM 70 °F - 60 °F 61% 29.83 in 6 mi North 19.6 mph - -   Partly Cloudy
3:20 AM 71.6 °F - 62.6 °F 73% 29.83 in 6.2 mi North 23.0 mph 34.5 mph N/A   Mostly Cloudy
3:50 AM 69.8 °F - 59.0 °F 68% 29.83 in 6.2 mi NNE 19.6 mph 31.1 mph N/A   Mostly Cloudy
4:20 AM 69.8 °F - 59.0 °F 68% 29.80 in 6.2 mi NNE 23.0 mph 34.5 mph N/A   Mostly Cloudy
4:50 AM 69.8 °F - 59.0 °F 68% 29.80 in 6.2 mi NNE 20.7 mph 32.2 mph N/A   Scattered Clouds
5:20 AM 69.8 °F - 59.0 °F 68% 29.80 in 6.2 mi NNE 20.7 mph 32.2 mph N/A   Scattered Clouds
5:50 AM 69.8 °F - 59.0 °F 68% 29.80 in 6.2 mi North 23.0 mph 34.5 mph N/A   Mostly Cloudy
6:00 AM 70 °F - 59 °F 61% 29.81 in 9 mi North 23.0 mph - -   Mostly Cloudy
6:20 AM 69.8 °F - 59.0 °F 68% 29.80 in 6.2 mi North 23.0 mph 34.5 mph N/A   Mostly Cloudy
6:50 AM 69.8 °F - 59.0 °F 68% 29.80 in 6.2 mi North 24.2 mph 35.7 mph N/A   Scattered Clouds
7:20 AM 69.8 °F - 59.0 °F 68% 29.80 in 6.2 mi North 23.0 mph 34.5 mph N/A   Scattered Clouds
7:50 AM 71.6 °F - 59.0 °F 64% 29.80 in 6.2 mi North 33.4 mph 44.9 mph N/A   Scattered Clouds
8:20 AM 71.6 °F - 59.0 °F 64% 29.80 in 6.2 mi North 32.2 mph 46.0 mph N/A   Scattered Clouds
8:50 AM 71.6 °F - 59.0 °F 64% 29.80 in 6.2 mi North 28.8 mph 40.3 mph N/A   Scattered Clouds
9:00 AM 72 °F - 59 °F 55% 29.81 in 6 mi North 28.8 mph - -   Partly Cloudy
9:20 AM 71.6 °F - 59.0 °F 64% 29.80 in 6.2 mi North 27.6 mph 41.4 mph N/A   Scattered Clouds
9:50 AM 73.4 °F - 59.0 °F 61% 29.80 in 6.2 mi North 27.6 mph 40.3 mph N/A   Scattered Clouds
10:20 AM 73.4 °F - 59.0 °F 61% 29.80 in 6.2 mi NNE 27.6 mph 47.2 mph N/A   Scattered Clouds
10:50 AM 77.0 °F - 60.8 °F 57% 29.80 in 6.2 mi North 33.4 mph 47.2 mph N/A   Scattered Clouds
11:20 AM 77.0 °F - 60.8 °F 57% 29.80 in 6.2 mi NNE 29.9 mph 51.8 mph N/A   Scattered Clouds
11:50 AM 75.2 °F - 60.8 °F 61% 29.80 in 6.2 mi North 36.8 mph 49.5 mph N/A   Scattered Clouds
12:00 PM 76 °F - 60 °F 48% 29.80 in 6 mi North 36.8 mph - -   Partly Cloudy
12:20 PM 75.2 °F - 60.8 °F 61% 29.80 in 6.2 mi North 38.0 mph 51.8 mph N/A   Scattered Clouds
12:50 PM 78.8 °F - 60.8 °F 54% 29.80 in 6.2 mi North 39.1 mph 52.9 mph N/A   Scattered Clouds
1:20 PM 78.8 °F - 60.8 °F 54% 29.80 in 6.2 mi North 35.7 mph 49.5 mph N/A   Scattered Clouds
1:50 PM 80.6 °F 81.1 °F 59.0 °F 48% 29.77 in 6.2 mi North 39.1 mph 54.1 mph N/A   Scattered Clouds
2:20 PM 80.6 °F 81.1 °F 59.0 °F 48% 29.77 in 6.2 mi North 39.1 mph 54.1 mph N/A   Scattered Clouds
2:50 PM 78.8 °F - 60.8 °F 54% 29.80 in 6.2 mi North 32.2 mph 48.3 mph N/A   Scattered Clouds
3:00 PM 79 °F - 60 °F 42% 29.82 in 6 mi North 32.2 mph - -   Partly Cloudy
3:20 PM 78.8 °F - 60.8 °F 54% 29.80 in 6.2 mi NNE 31.1 mph 43.7 mph N/A   Scattered Clouds
3:50 PM 80.6 °F 81.1 °F 59.0 °F 48% 29.80 in 6.2 mi NNE 31.1 mph 48.3 mph N/A   Scattered Clouds
4:20 PM 80.6 °F 81.1 °F 59.0 °F 48% 29.80 in 6.2 mi NNE 31.1 mph 48.3 mph N/A   Scattered Clouds
4:50 PM 78.8 °F - 55.4 °F 44% 29.80 in 6.2 mi NNE 31.1 mph 42.6 mph N/A   Scattered Clouds
5:20 PM 77.0 °F - 55.4 °F 47% 29.80 in 6.2 mi NNE 26.5 mph 40.3 mph N/A   Scattered Clouds
5:50 PM 77.0 °F - 55.4 °F 47% 29.80 in 6.2 mi NNE 27.6 mph 44.9 mph N/A   Scattered Clouds
6:00 PM 77 °F - 55 °F 36% 29.81 in 9 mi NNE 27.6 mph - -   Overcast
6:20 PM 77.0 °F - 55.4 °F 47% 29.80 in 6.2 mi NNE 23.0 mph 36.8 mph N/A   Scattered Clouds
6:50 PM 75.2 °F - 55.4 °F 50% 29.83 in 6.2 mi NNE 26.5 mph 43.7 mph N/A   Scattered Clouds
7:20 PM 75.2 °F - 55.4 °F 50% 29.83 in 6.2 mi NNE 23.0 mph 36.8 mph N/A   Scattered Clouds
7:50 PM 75.2 °F - 55.4 °F 50% 29.83 in 6.2 mi North 25.3 mph 40.3 mph N/A   Scattered Clouds
8:20 PM 73.4 °F - 53.6 °F 50% 29.86 in 6.2 mi North 24.2 mph 39.1 mph N/A   Scattered Clouds
8:50 PM 73.4 °F - 57.2 °F 57% 29.92 in 6.2 mi NNE 6.9 mph - N/A   Scattered Clouds
9:00 PM 74 °F - 56 °F 44% 29.93 in 9 mi North 6.9 mph - -   Partly Cloudy
9:20 PM 73.4 °F - 57.2 °F 57% 29.95 in 6.2 mi NNW 9.2 mph - N/A   Scattered Clouds
9:50 PM 71.6 °F - 55.4 °F 57% 29.95 in 6.2 mi NW 9.2 mph - N/A   Scattered Clouds
10:20 PM 68.0 °F - 60.8 °F 78% 30.01 in 4.3 mi South 9.2 mph - N/A Rain , Thunderstorm Thunderstorms and Rain
10:50 PM 66.2 °F - 62.6 °F 88% 29.98 in 6.2 mi North 5.8 mph - N/A Rain , Thunderstorm Thunderstorms and Rain
11:20 PM 66.2 °F - 60.8 °F 83% 29.95 in 6.2 mi NNE 15.0 mph 26.5 mph N/A Rain , Thunderstorm Light Thunderstorms and Rain
11:50 PM 66.2 °F - 59.0 °F 78% 29.95 in 6.2 mi North 11.5 mph - N/A   Scattered Clouds